TimeEST,TemperatureF,Dew PointF,Humidity,Sea Level PressureIn,VisibilityMPH,Wind Direction,Wind SpeedMPH,Gust SpeedMPH,PrecipitationIn,Events,Conditions,WindDirDegrees,DateUTC
12:15 AM,46.4,41.0,81,30.06,10.0,North,8.1,-,N/A,,Clear,10,2012-11-06 05:15:00
12:35 AM,46.4,39.2,76,30.06,10.0,NNE,6.9,-,N/A,,Clear,30,2012-11-06 05:35:00
12:55 AM,44.6,39.2,81,30.05,10.0,NNE,6.9,-,N/A,,Clear,30,2012-11-06 05:55:00
1:15 AM,44.6,39.2,81,30.06,10.0,NNE,5.8,-,N/A,,Clear,20,2012-11-06 06:15:00
1:35 AM,42.8,39.2,87,30.05,10.0,North,8.1,-,N/A,,Clear,10,2012-11-06 06:35:00
1:55 AM,42.8,39.2,87,30.05,10.0,North,9.2,-,N/A,,Clear,10,2012-11-06 06:55:00
2:15 AM,44.6,39.2,81,30.04,10.0,NNE,9.2,-,N/A,,Clear,20,2012-11-06 07:15:00
2:35 AM,42.8,39.2,87,30.04,10.0,NNE,9.2,-,N/A,,Clear,20,2012-11-06 07:35:00
2:55 AM,42.8,39.2,87,30.03,10.0,North,10.4,-,N/A,,Clear,10,2012-11-06 07:55:00
3:15 AM,42.8,37.4,81,30.02,10.0,NNE,11.5,-,N/A,,Clear,30,2012-11-06 08:15:00
3:35 AM,42.8,37.4,81,30.02,10.0,NNE,12.7,-,N/A,,Clear,30,2012-11-06 08:35:00
3:55 AM,42.8,39.2,87,30.03,10.0,NNE,11.5,-,N/A,,Clear,20,2012-11-06 08:55:00
4:15 AM,42.8,39.2,87,30.03,10.0,NNE,12.7,-,N/A,,Clear,20,2012-11-06 09:15:00
4:35 AM,42.8,39.2,87,30.02,10.0,NNE,11.5,-,N/A,,Clear,30,2012-11-06 09:35:00
4:55 AM,44.6,39.2,81,30.02,10.0,NNE,11.5,17.3,N/A,,Clear,30,2012-11-06 09:55:00
5:15 AM,44.6,37.4,76,30.01,10.0,NNE,12.7,-,N/A,,Clear,20,2012-11-06 10:15:00
5:35 AM,42.8,37.4,81,30.01,10.0,NNE,13.8,18.4,N/A,,Scattered Clouds,30,2012-11-06 10:35:00
5:55 AM,44.6,37.4,76,30.02,10.0,NNE,10.4,-,N/A,,Mostly Cloudy,30,2012-11-06 10:55:00
6:50 AM,42.8,37.4,81,30.05,10.0,North,11.5,-,N/A,,Mostly Cloudy,10,2012-11-06 11:50:00
6:55 AM,44.6,35.6,71,30.02,10.0,NE,12.7,-,N/A,,Clear,40,2012-11-06 11:55:00
7:45 AM,44.6,37.4,76,30.04,10.0,North,15.0,-,N/A,,Mostly Cloudy,10,2012-11-06 12:45:00
8:50 AM,44.6,37.4,76,30.04,10.0,NNE,15.0,-,N/A,,Mostly Cloudy,30,2012-11-06 13:50:00
9:45 AM,44.6,39.2,81,30.03,10.0,NNE,17.3,-,N/A,,Mostly Cloudy,20,2012-11-06 14:45:00
10:45 AM,44.6,42.8,93,29.98,10.0,NE,17.3,-,N/A,,Mostly Cloudy,40,2012-11-06 15:45:00
11:45 AM,44.6,41.0,87,29.98,10.0,NNE,11.5,-,N/A,,Mostly Cloudy,20,2012-11-06 16:45:00
12:45 PM,46.4,44.6,93,29.94,10.0,North,13.8,-,N/A,,Mostly Cloudy,10,2012-11-06 17:45:00
1:45 PM,48.2,44.6,87,29.91,10.0,East,13.8,-,N/A,,Mostly Cloudy,80,2012-11-06 18:45:00
2:50 PM,51.8,42.8,71,29.91,10.0,NNE,13.8,-,N/A,,Mostly Cloudy,20,2012-11-06 19:50:00
3:50 PM,51.8,42.8,71,29.92,10.0,NNE,17.3,-,N/A,,Mostly Cloudy,20,2012-11-06 20:50:00
4:45 PM,48.2,39.2,71,29.92,10.0,NNE,13.8,-,N/A,,Mostly Cloudy,30,2012-11-06 21:45:00
5:45 PM,46.4,42.8,87,29.91,10.0,NNE,17.3,-,N/A,,Scattered Clouds,20,2012-11-06 22:45:00
6:45 PM,46.4,39.2,76,29.91,10.0,North,12.7,-,N/A,,Scattered Clouds,360,2012-11-06 23:45:00
7:45 PM,46.4,39.2,76,29.92,10.0,NNE,17.3,-,N/A,,Mostly Cloudy,20,2012-11-07 00:45:00
8:45 PM,46.4,37.4,71,29.93,10.0,North,17.3,-,N/A,,Mostly Cloudy,360,2012-11-07 01:45:00
10:55 PM,44.6,37.4,76,29.88,10.0,North,15.0,-,N/A,,Mostly Cloudy,350,2012-11-07 03:55:00
11:15 PM,42.8,37.4,81,29.88,10.0,North,11.5,-,N/A,,Clear,350,2012-11-07 04:15:00
11:35 PM,44.6,37.4,76,29.89,10.0,NNW,9.2,-,N/A,,Partly Cloudy,340,2012-11-07 04:35:00
11:55 PM,44.6,37.4,76,29.89,10.0,NNW,10.4,-,N/A,,Mostly Cloudy,340,2012-11-07 04:55:00